owner,sensor,date,latitude,longitude,vertical_datum,sea_water_practical_salinity,qcFlag 
DISL,ioos:station:DISL:MHPA:1,2014-12-01T00:00:00Z,30.6671,-87.9365,1.236,0.89,1111122 
DISL,ioos:station:DISL:MHPA:1,2014-12-01T00:30:00Z,30.6671,-87.9365,1.255,0.91,1111122 
DISL,ioos:station:DISL:MHPA:1,2014-12-01T01:00:00Z,30.6671,-87.9365,1.254,0.92,1111122 
DISL,ioos:station:DISL:MHPA:1,2014-12-01T01:30:00Z,30.6671,-87.9365,1.27,0.98,1111122 
DISL,ioos:station:DISL:MHPA:1,2014-12-01T02:00:00Z,30.6671,-87.9365,1.282,0.96,1111122 
DISL,ioos:station:DISL:MHPA:1,2014-12-01T02:30:00Z,30.6671,-87.9365,1.291,0.92,1111122 
DISL,ioos:station:DISL:MHPA:1,2014-12-01T03:00:00Z,30.6671,-87.9365,1.3,0.93,1111122 
DISL,ioos:station:DISL:MHPA:1,2014-12-01T03:30:00Z,30.6671,-87.9365,1.309,0.93,1111122 
DISL,ioos:station:DISL:MHPA:1,2014-12-01T04:00:00Z,30.6671,-87.9365,1.307,0.91,1111122 
DISL,ioos:station:DISL:MHPA:1,2014-12-01T04:30:00Z,30.6671,-87.9365,1.303,0.9,1111122 
DISL,ioos:station:DISL:MHPA:1,2014-12-01T05:00:00Z,30.6671,-87.9365,1.293,0.89,1111122 
DISL,ioos:station:DISL:MHPA:1,2014-12-01T05:30:00Z,30.6671,-87.9365,1.261,0.9,1111122 
DISL,ioos:station:DISL:MHPA:1,2014-12-01T06:00:00Z,30.6671,-87.9365,1.234,0.9,1111122 
DISL,ioos:station:DISL:MHPA:1,2014-12-01T06:30:00Z,30.6671,-87.9365,1.2,0.89,1111122 
DISL,ioos:station:DISL:MHPA:1,2014-12-01T07:00:00Z,30.6671,-87.9365,1.166,0.9,1111122 
DISL,ioos:station:DISL:MHPA:1,2014-12-01T07:30:00Z,30.6671,-87.9365,1.133,0.92,1111122 
DISL,ioos:station:DISL:MHPA:1,2014-12-01T08:00:00Z,30.6671,-87.9365,1.1,0.92,1111122 
DISL,ioos:station:DISL:MHPA:1,2014-12-01T08:30:00Z,30.6671,-87.9365,1.07,0.93,1111122 
DISL,ioos:station:DISL:MHPA:1,2014-12-01T09:00:00Z,30.6671,-87.9365,1.057,0.94,1111122 
DISL,ioos:station:DISL:MHPA:1,2014-12-01T09:30:00Z,30.6671,-87.9365,1.045,0.9,1111122 
DISL,ioos:station:DISL:MHPA:1,2014-12-01T10:00:00Z,30.6671,-87.9365,1.032,0.9,1111122 
DISL,ioos:station:DISL:MHPA:1,2014-12-01T10:30:00Z,30.6671,-87.9365,1.022,0.91,1111122 
DISL,ioos:station:DISL:MHPA:1,2014-12-01T11:00:00Z,30.6671,-87.9365,1.018,0.92,1111122 
DISL,ioos:station:DISL:MHPA:1,2014-12-01T11:30:00Z,30.6671,-87.9365,1.015,0.91,1111122 
DISL,ioos:station:DISL:MHPA:1,2014-12-01T12:00:00Z,30.6671,-87.9365,1.01,0.92,1111122 
DISL,ioos:station:DISL:MHPA:1,2014-12-01T12:30:00Z,30.6671,-87.9365,0.997,0.91,1111122 
DISL,ioos:station:DISL:MHPA:1,2014-12-01T13:00:00Z,30.6671,-87.9365,0.992,0.94,1111122 
DISL,ioos:station:DISL:MHPA:1,2014-12-01T13:30:00Z,30.6671,-87.9365,0.996,0.95,1111122 
DISL,ioos:station:DISL:MHPA:1,2014-12-01T14:00:00Z,30.6671,-87.9365,1.002,0.94,1111122 
DISL,ioos:station:DISL:MHPA:1,2014-12-01T14:30:00Z,30.6671,-87.9365,1.006,0.95,1111122 
DISL,ioos:station:DISL:MHPA:1,2014-12-01T15:00:00Z,30.6671,-87.9365,1.028,0.93,1111122 
DISL,ioos:station:DISL:MHPA:1,2014-12-01T15:30:00Z,30.6671,-87.9365,1.047,0.93,1111122 
DISL,ioos:station:DISL:MHPA:1,2014-12-01T16:00:00Z,30.6671,-87.9365,1.065,0.92,1111122 
DISL,ioos:station:DISL:MHPA:1,2014-12-01T16:30:00Z,30.6671,-87.9365,1.071,0.91,1111122 
DISL,ioos:station:DISL:MHPA:1,2014-12-01T17:00:00Z,30.6671,-87.9365,1.073,0.88,1111122 
DISL,ioos:station:DISL:MHPA:1,2014-12-01T17:30:00Z,30.6671,-87.9365,1.076,0.81,1111122 
DISL,ioos:station:DISL:MHPA:1,2014-12-01T18:00:00Z,30.6671,-87.9365,1.069,0.8,1111122 
DISL,ioos:station:DISL:MHPA:1,2014-12-01T18:30:00Z,30.6671,-87.9365,1.065,0.84,1111122 
DISL,ioos:station:DISL:MHPA:1,2014-12-01T19:00:00Z,30.6671,-87.9365,1.079,0.83,1111122 
DISL,ioos:station:DISL:MHPA:1,2014-12-01T19:30:00Z,30.6671,-87.9365,1.084,0.89,1111122 
DISL,ioos:station:DISL:MHPA:1,2014-12-01T20:00:00Z,30.6671,-87.9365,1.091,0.91,1111122 
DISL,ioos:station:DISL:MHPA:1,2014-12-01T20:30:00Z,30.6671,-87.9365,1.099,0.85,1111122 
DISL,ioos:station:DISL:MHPA:1,2014-12-01T21:00:00Z,30.6671,-87.9365,1.098,0.9,1111122 
DISL,ioos:station:DISL:MHPA:1,2014-12-01T21:30:00Z,30.6671,-87.9365,1.109,0.94,1111122 
DISL,ioos:station:DISL:MHPA:1,2014-12-01T22:00:00Z,30.6671,-87.9365,1.127,0.93,1111122 
DISL,ioos:station:DISL:MHPA:1,2014-12-01T22:30:00Z,30.6671,-87.9365,1.149,0.98,1111122 
DISL,ioos:station:DISL:MHPA:1,2014-12-01T23:00:00Z,30.6671,-87.9365,1.166,0.94,1111122 
DISL,ioos:station:DISL:MHPA:1,2014-12-01T23:30:00Z,30.6671,-87.9365,1.176,0.92,1111122 
DISL,ioos:station:DISL:MHPA:1,2014-12-02T00:00:00Z,30.6671,-87.9365,1.2,0.89,1111122 
DISL,ioos:station:DISL:MHPA:1,2014-12-02T00:30:00Z,30.6671,-87.9365,1.215,0.93,1111122 
DISL,ioos:station:DISL:MHPA:1,2014-12-02T01:00:00Z,30.6671,-87.9365,1.23,0.92,1111122 
DISL,ioos:station:DISL:MHPA:1,2014-12-02T01:30:00Z,30.6671,-87.9365,1.227,0.88,1111122 
DISL,ioos:station:DISL:MHPA:1,2014-12-02T02:00:00Z,30.6671,-87.9365,1.238,0.94,1111122 
DISL,ioos:station:DISL:MHPA:1,2014-12-02T02:30:00Z,30.6671,-87.9365,1.245,0.92,1111122 
DISL,ioos:station:DISL:MHPA:1,2014-12-02T03:00:00Z,30.6671,-87.9365,1.258,0.92,1111122 
DISL,ioos:station:DISL:MHPA:1,2014-12-02T03:30:00Z,30.6671,-87.9365,1.268,0.95,1111122 
DISL,ioos:station:DISL:MHPA:1,2014-12-02T04:00:00Z,30.6671,-87.9365,1.266,0.93,1111122 
DISL,ioos:station:DISL:MHPA:1,2014-12-02T04:30:00Z,30.6671,-87.9365,1.271,0.95,1111122 
DISL,ioos:station:DISL:MHPA:1,2014-12-02T05:00:00Z,30.6671,-87.9365,1.268,0.91,1111122 
DISL,ioos:station:DISL:MHPA:1,2014-12-02T05:30:00Z,30.6671,-87.9365,1.238,0.92,1111122 
DISL,ioos:station:DISL:MHPA:1,2014-12-02T06:00:00Z,30.6671,-87.9365,1.222,0.95,1111122 
DISL,ioos:station:DISL:MHPA:1,2014-12-02T06:30:00Z,30.6671,-87.9365,1.185,0.92,1111122 
DISL,ioos:station:DISL:MHPA:1,2014-12-02T07:00:00Z,30.6671,-87.9365,1.154,0.92,1111122 
DISL,ioos:station:DISL:MHPA:1,2014-12-02T07:30:00Z,30.6671,-87.9365,1.118,0.95,1111122 
DISL,ioos:station:DISL:MHPA:1,2014-12-02T08:00:00Z,30.6671,-87.9365,1.078,0.95,1111122 
DISL,ioos:station:DISL:MHPA:1,2014-12-02T08:30:00Z,30.6671,-87.9365,1.047,0.92,1111122 
DISL,ioos:station:DISL:MHPA:1,2014-12-02T09:00:00Z,30.6671,-87.9365,1.023,0.84,1111122 
DISL,ioos:station:DISL:MHPA:1,2014-12-02T09:30:00Z,30.6671,-87.9365,0.998,0.78,1111122 
DISL,ioos:station:DISL:MHPA:1,2014-12-02T10:00:00Z,30.6671,-87.9365,0.974,0.87,1111122 
DISL,ioos:station:DISL:MHPA:1,2014-12-02T10:30:00Z,30.6671,-87.9365,0.962,0.91,1111122 
DISL,ioos:station:DISL:MHPA:1,2014-12-02T11:00:00Z,30.6671,-87.9365,0.962,0.93,1111122 
DISL,ioos:station:DISL:MHPA:1,2014-12-02T11:30:00Z,30.6671,-87.9365,0.962,0.94,1111122 
DISL,ioos:station:DISL:MHPA:1,2014-12-02T12:00:00Z,30.6671,-87.9365,0.947,0.89,1111122 
DISL,ioos:station:DISL:MHPA:1,2014-12-02T12:30:00Z,30.6671,-87.9365,0.949,0.85,1111122 
DISL,ioos:station:DISL:MHPA:1,2014-12-02T13:00:00Z,30.6671,-87.9365,0.949,0.87,1111122 
DISL,ioos:station:DISL:MHPA:1,2014-12-02T13:30:00Z,30.6671,-87.9365,0.956,0.85,1111122 
DISL,ioos:station:DISL:MHPA:1,2014-12-02T14:00:00Z,30.6671,-87.9365,0.958,0.93,1111122 
DISL,ioos:station:DISL:MHPA:1,2014-12-02T14:30:00Z,30.6671,-87.9365,0.952,0.91,1111122 
DISL,ioos:station:DISL:MHPA:1,2014-12-02T15:00:00Z,30.6671,-87.9365,0.97,0.85,1111122 
DISL,ioos:station:DISL:MHPA:1,2014-12-02T15:30:00Z,30.6671,-87.9365,0.996,0.89,1111122 
DISL,ioos:station:DISL:MHPA:1,2014-12-02T16:00:00Z,30.6671,-87.9365,1.019,0.87,1111122 
DISL,ioos:station:DISL:MHPA:1,2014-12-02T16:30:00Z,30.6671,-87.9365,1.054,0.91,1111122 
DISL,ioos:station:DISL:MHPA:1,2014-12-02T17:00:00Z,30.6671,-87.9365,1.094,0.9,1111122 
DISL,ioos:station:DISL:MHPA:1,2014-12-02T17:30:00Z,30.6671,-87.9365,1.115,0.94,1111122 
DISL,ioos:station:DISL:MHPA:1,2014-12-02T18:00:00Z,30.6671,-87.9365,1.145,0.92,1111122 
DISL,ioos:station:DISL:MHPA:1,2014-12-02T18:30:00Z,30.6671,-87.9365,1.163,0.91,1111122 
DISL,ioos:station:DISL:MHPA:1,2014-12-02T19:00:00Z,30.6671,-87.9365,1.173,0.9,1111122 
DISL,ioos:station:DISL:MHPA:1,2014-12-02T19:30:00Z,30.6671,-87.9365,1.17,0.88,1111122 
DISL,ioos:station:DISL:MHPA:1,2014-12-02T20:00:00Z,30.6671,-87.9365,1.185,0.88,1111122 
DISL,ioos:station:DISL:MHPA:1,2014-12-02T20:30:00Z,30.6671,-87.9365,1.218,0.87,1111122 
DISL,ioos:station:DISL:MHPA:1,2014-12-02T21:00:00Z,30.6671,-87.9365,1.245,0.87,1111122 
DISL,ioos:station:DISL:MHPA:1,2014-12-02T21:30:00Z,30.6671,-87.9365,1.268,0.88,1111122 
DISL,ioos:station:DISL:MHPA:1,2014-12-02T22:00:00Z,30.6671,-87.9365,1.299,0.85,1111122 
DISL,ioos:station:DISL:MHPA:1,2014-12-02T22:30:00Z,30.6671,-87.9365,1.331,0.83,1111122 
DISL,ioos:station:DISL:MHPA:1,2014-12-02T23:00:00Z,30.6671,-87.9365,1.35,0.83,1111122 
DISL,ioos:station:DISL:MHPA:1,2014-12-02T23:30:00Z,30.6671,-87.9365,1.368,0.83,1111122 
DISL,ioos:station:DISL:MHPA:1,2014-12-03T00:00:00Z,30.6671,-87.9365,1.404,0.84,1111122 
DISL,ioos:station:DISL:MHPA:1,2014-12-03T00:30:00Z,30.6671,-87.9365,1.411,0.84,1111122 
DISL,ioos:station:DISL:MHPA:1,2014-12-03T01:00:00Z,30.6671,-87.9365,1.398,0.84,1111122 
DISL,ioos:station:DISL:MHPA:1,2014-12-03T01:30:00Z,30.6671,-87.9365,1.413,0.97,1111122 
DISL,ioos:station:DISL:MHPA:1,2014-12-03T02:00:00Z,30.6671,-87.9365,1.405,0.93,1111122 
DISL,ioos:station:DISL:MHPA:1,2014-12-03T02:30:00Z,30.6671,-87.9365,1.401,0.86,1111122 
DISL,ioos:station:DISL:MHPA:1,2014-12-03T03:00:00Z,30.6671,-87.9365,1.403,0.83,1111122 
DISL,ioos:station:DISL:MHPA:1,2014-12-03T03:30:00Z,30.6671,-87.9365,1.406,0.83,1111122 
DISL,ioos:station:DISL:MHPA:1,2014-12-03T04:00:00Z,30.6671,-87.9365,1.389,0.86,1111122 
DISL,ioos:station:DISL:MHPA:1,2014-12-03T04:30:00Z,30.6671,-87.9365,1.384,0.9,1111122 
DISL,ioos:station:DISL:MHPA:1,2014-12-03T05:00:00Z,30.6671,-87.9365,1.353,0.88,1111122 
DISL,ioos:station:DISL:MHPA:1,2014-12-03T05:30:00Z,30.6671,-87.9365,1.337,0.93,1111122 
DISL,ioos:station:DISL:MHPA:1,2014-12-03T06:00:00Z,30.6671,-87.9365,1.302,1.26,1111122 
DISL,ioos:station:DISL:MHPA:1,2014-12-03T06:30:00Z,30.6671,-87.9365,1.257,1.34,1111122 
DISL,ioos:station:DISL:MHPA:1,2014-12-03T07:00:00Z,30.6671,-87.9365,1.203,1.4,1111122 
DISL,ioos:station:DISL:MHPA:1,2014-12-03T07:30:00Z,30.6671,-87.9365,1.158,1.31,1111122 
DISL,ioos:station:DISL:MHPA:1,2014-12-03T08:00:00Z,30.6671,-87.9365,1.11,1.51,1111122 
DISL,ioos:station:DISL:MHPA:1,2014-12-03T08:30:00Z,30.6671,-87.9365,1.065,1.52,1111122 
DISL,ioos:station:DISL:MHPA:1,2014-12-03T09:00:00Z,30.6671,-87.9365,1.029,1.48,1111122 
DISL,ioos:station:DISL:MHPA:1,2014-12-03T09:30:00Z,30.6671,-87.9365,0.998,1.52,1111122 
DISL,ioos:station:DISL:MHPA:1,2014-12-03T10:00:00Z,30.6671,-87.9365,0.967,1.46,1111122 
DISL,ioos:station:DISL:MHPA:1,2014-12-03T10:30:00Z,30.6671,-87.9365,0.942,1.47,1111122 
DISL,ioos:station:DISL:MHPA:1,2014-12-03T11:00:00Z,30.6671,-87.9365,0.922,1.46,1111122 
DISL,ioos:station:DISL:MHPA:1,2014-12-03T11:30:00Z,30.6671,-87.9365,0.903,1.63,1111122 
DISL,ioos:station:DISL:MHPA:1,2014-12-03T12:00:00Z,30.6671,-87.9365,0.888,1.59,1111122 
DISL,ioos:station:DISL:MHPA:1,2014-12-03T12:30:00Z,30.6671,-87.9365,0.869,1.71,1111122 
DISL,ioos:station:DISL:MHPA:1,2014-12-03T13:00:00Z,30.6671,-87.9365,0.855,1.69,1111122 
DISL,ioos:station:DISL:MHPA:1,2014-12-03T13:30:00Z,30.6671,-87.9365,0.839,1.64,1111122 
DISL,ioos:station:DISL:MHPA:1,2014-12-03T14:00:00Z,30.6671,-87.9365,0.836,1.58,1111122 
DISL,ioos:station:DISL:MHPA:1,2014-12-03T14:30:00Z,30.6671,-87.9365,0.827,1.69,1111122 
DISL,ioos:station:DISL:MHPA:1,2014-12-03T15:00:00Z,30.6671,-87.9365,0.831,1.63,1111122 
DISL,ioos:station:DISL:MHPA:1,2014-12-03T15:30:00Z,30.6671,-87.9365,0.855,1.76,1111122 
DISL,ioos:station:DISL:MHPA:1,2014-12-03T16:00:00Z,30.6671,-87.9365,0.881,1.7,1111122 
DISL,ioos:station:DISL:MHPA:1,2014-12-03T16:30:00Z,30.6671,-87.9365,0.921,1.65,1111122 
DISL,ioos:station:DISL:MHPA:1,2014-12-03T17:00:00Z,30.6671,-87.9365,0.97,1.57,1111122 
DISL,ioos:station:DISL:MHPA:1,2014-12-03T17:30:00Z,30.6671,-87.9365,1.005,1.43,1111122 
DISL,ioos:station:DISL:MHPA:1,2014-12-03T18:00:00Z,30.6671,-87.9365,1.036,1.32,1111122 
DISL,ioos:station:DISL:MHPA:1,2014-12-03T18:30:00Z,30.6671,-87.9365,1.081,1.48,1111122 
DISL,ioos:station:DISL:MHPA:1,2014-12-03T19:00:00Z,30.6671,-87.9365,1.124,1.56,1111122 
DISL,ioos:station:DISL:MHPA:1,2014-12-03T19:30:00Z,30.6671,-87.9365,1.147,1.61,1111122 
DISL,ioos:station:DISL:MHPA:1,2014-12-03T20:00:00Z,30.6671,-87.9365,1.178,1.57,1111122 
DISL,ioos:station:DISL:MHPA:1,2014-12-03T20:30:00Z,30.6671,-87.9365,1.208,1.52,1111122 
DISL,ioos:station:DISL:MHPA:1,2014-12-03T21:00:00Z,30.6671,-87.9365,1.214,1.51,1111122 
DISL,ioos:station:DISL:MHPA:1,2014-12-03T21:30:00Z,30.6671,-87.9365,1.248,1.47,1111122 
DISL,ioos:station:DISL:MHPA:1,2014-12-03T22:00:00Z,30.6671,-87.9365,1.27,1.58,1111122 
DISL,ioos:station:DISL:MHPA:1,2014-12-03T22:30:00Z,30.6671,-87.9365,1.291,1.79,1111122 
DISL,ioos:station:DISL:MHPA:1,2014-12-03T23:00:00Z,30.6671,-87.9365,1.323,1.64,1111122 
DISL,ioos:station:DISL:MHPA:1,2014-12-03T23:30:00Z,30.6671,-87.9365,1.353,1.63,1111122 
DISL,ioos:station:DISL:MHPA:1,2014-12-04T00:00:00Z,30.6671,-87.9365,1.391,1.59,1111122 
DISL,ioos:station:DISL:MHPA:1,2014-12-04T00:30:00Z,30.6671,-87.9365,1.415,1.6,1111122 
DISL,ioos:station:DISL:MHPA:1,2014-12-04T01:00:00Z,30.6671,-87.9365,1.435,1.52,1111122 
DISL,ioos:station:DISL:MHPA:1,2014-12-04T01:30:00Z,30.6671,-87.9365,1.442,1.48,1111122 
DISL,ioos:station:DISL:MHPA:1,2014-12-04T02:00:00Z,30.6671,-87.9365,1.453,1.51,1111122 
DISL,ioos:station:DISL:MHPA:1,2014-12-04T02:30:00Z,30.6671,-87.9365,1.449,1.53,1111122 
DISL,ioos:station:DISL:MHPA:1,2014-12-04T03:00:00Z,30.6671,-87.9365,1.444,1.54,1111122 
DISL,ioos:station:DISL:MHPA:1,2014-12-04T03:30:00Z,30.6671,-87.9365,1.446,1.54,1111122 
DISL,ioos:station:DISL:MHPA:1,2014-12-04T04:00:00Z,30.6671,-87.9365,1.439,1.55,1111122 
DISL,ioos:station:DISL:MHPA:1,2014-12-04T04:30:00Z,30.6671,-87.9365,1.434,1.54,1111122 
DISL,ioos:station:DISL:MHPA:1,2014-12-04T05:00:00Z,30.6671,-87.9365,1.422,1.66,1111122 
DISL,ioos:station:DISL:MHPA:1,2014-12-04T05:30:00Z,30.6671,-87.9365,1.403,1.85,1111122 
DISL,ioos:station:DISL:MHPA:1,2014-12-04T06:00:00Z,30.6671,-87.9365,1.376,2.25,1111122 
DISL,ioos:station:DISL:MHPA:1,2014-12-04T06:30:00Z,30.6671,-87.9365,1.336,2.21,1111122 
DISL,ioos:station:DISL:MHPA:1,2014-12-04T07:00:00Z,30.6671,-87.9365,1.292,2.2,1111122 
DISL,ioos:station:DISL:MHPA:1,2014-12-04T07:30:00Z,30.6671,-87.9365,1.241,2.34,1111122 
DISL,ioos:station:DISL:MHPA:1,2014-12-04T08:00:00Z,30.6671,-87.9365,1.188,2.7,1111122 
DISL,ioos:station:DISL:MHPA:1,2014-12-04T08:30:00Z,30.6671,-87.9365,1.142,2.71,1111122 
DISL,ioos:station:DISL:MHPA:1,2014-12-04T09:00:00Z,30.6671,-87.9365,1.094,2.71,1111122 
DISL,ioos:station:DISL:MHPA:1,2014-12-04T09:30:00Z,30.6671,-87.9365,1.053,2.82,1111122 
DISL,ioos:station:DISL:MHPA:1,2014-12-04T10:00:00Z,30.6671,-87.9365,1.02,2.66,1111122 
DISL,ioos:station:DISL:MHPA:1,2014-12-04T10:30:00Z,30.6671,-87.9365,0.99,2.65,1111122 
DISL,ioos:station:DISL:MHPA:1,2014-12-04T11:00:00Z,30.6671,-87.9365,0.962,2.79,1111122 
DISL,ioos:station:DISL:MHPA:1,2014-12-04T11:30:00Z,30.6671,-87.9365,0.934,2.8,1111122 
DISL,ioos:station:DISL:MHPA:1,2014-12-04T12:00:00Z,30.6671,-87.9365,0.914,2.83,1111122 
DISL,ioos:station:DISL:MHPA:1,2014-12-04T12:30:00Z,30.6671,-87.9365,0.897,2.77,1111122 
DISL,ioos:station:DISL:MHPA:1,2014-12-04T13:00:00Z,30.6671,-87.9365,0.878,2.71,1111122 
DISL,ioos:station:DISL:MHPA:1,2014-12-04T13:30:00Z,30.6671,-87.9365,0.862,2.74,1111122 
DISL,ioos:station:DISL:MHPA:1,2014-12-04T14:00:00Z,30.6671,-87.9365,0.845,2.77,1111122 
DISL,ioos:station:DISL:MHPA:1,2014-12-04T14:30:00Z,30.6671,-87.9365,0.833,2.78,1111122 
DISL,ioos:station:DISL:MHPA:1,2014-12-04T15:00:00Z,30.6671,-87.9365,0.825,2.77,1111122 
DISL,ioos:station:DISL:MHPA:1,2014-12-04T15:30:00Z,30.6671,-87.9365,0.827,2.76,1111122 
DISL,ioos:station:DISL:MHPA:1,2014-12-04T16:00:00Z,30.6671,-87.9365,0.847,2.6,1111122 
DISL,ioos:station:DISL:MHPA:1,2014-12-04T16:30:00Z,30.6671,-87.9365,0.874,2.22,1111122 
DISL,ioos:station:DISL:MHPA:1,2014-12-04T17:00:00Z,30.6671,-87.9365,0.912,2.15,1111122 
DISL,ioos:station:DISL:MHPA:1,2014-12-04T17:30:00Z,30.6671,-87.9365,0.962,2.67,1111122 
DISL,ioos:station:DISL:MHPA:1,2014-12-04T18:00:00Z,30.6671,-87.9365,1.007,3.0,1111122 
DISL,ioos:station:DISL:MHPA:1,2014-12-04T18:30:00Z,30.6671,-87.9365,1.056,3.01,1111122 
DISL,ioos:station:DISL:MHPA:1,2014-12-04T19:00:00Z,30.6671,-87.9365,1.096,2.72,1111122 
DISL,ioos:station:DISL:MHPA:1,2014-12-04T19:30:00Z,30.6671,-87.9365,1.136,2.76,1111122 
DISL,ioos:station:DISL:MHPA:1,2014-12-04T20:00:00Z,30.6671,-87.9365,1.16,2.76,1111122 
DISL,ioos:station:DISL:MHPA:1,2014-12-04T20:30:00Z,30.6671,-87.9365,1.188,2.89,1111122 
DISL,ioos:station:DISL:MHPA:1,2014-12-04T21:00:00Z,30.6671,-87.9365,1.209,2.81,1111122 
DISL,ioos:station:DISL:MHPA:1,2014-12-04T21:30:00Z,30.6671,-87.9365,1.228,2.65,1111122 
DISL,ioos:station:DISL:MHPA:1,2014-12-04T22:00:00Z,30.6671,-87.9365,1.245,2.65,1111122 
DISL,ioos:station:DISL:MHPA:1,2014-12-04T22:30:00Z,30.6671,-87.9365,1.267,2.86,1111122 
DISL,ioos:station:DISL:MHPA:1,2014-12-04T23:00:00Z,30.6671,-87.9365,1.299,3.0,1111122 
DISL,ioos:station:DISL:MHPA:1,2014-12-04T23:30:00Z,30.6671,-87.9365,1.33,2.93,1111122 
DISL,ioos:station:DISL:MHPA:1,2014-12-05T00:00:00Z,30.6671,-87.9365,1.369,2.7,1111122 
DISL,ioos:station:DISL:MHPA:1,2014-12-05T00:30:00Z,30.6671,-87.9365,1.383,2.73,1111122 
DISL,ioos:station:DISL:MHPA:1,2014-12-05T01:00:00Z,30.6671,-87.9365,1.401,2.73,1111122 
DISL,ioos:station:DISL:MHPA:1,2014-12-05T01:30:00Z,30.6671,-87.9365,1.418,2.82,1111122 
DISL,ioos:station:DISL:MHPA:1,2014-12-05T02:00:00Z,30.6671,-87.9365,1.449,2.64,1111122 
DISL,ioos:station:DISL:MHPA:1,2014-12-05T02:30:00Z,30.6671,-87.9365,1.458,2.72,1111122 
DISL,ioos:station:DISL:MHPA:1,2014-12-05T03:00:00Z,30.6671,-87.9365,1.473,2.84,1111122 
DISL,ioos:station:DISL:MHPA:1,2014-12-05T03:30:00Z,30.6671,-87.9365,1.48,2.71,1111122 
DISL,ioos:station:DISL:MHPA:1,2014-12-05T04:00:00Z,30.6671,-87.9365,1.496,2.76,1111122 
DISL,ioos:station:DISL:MHPA:1,2014-12-05T04:30:00Z,30.6671,-87.9365,1.484,2.74,1111122 
DISL,ioos:station:DISL:MHPA:1,2014-12-05T05:00:00Z,30.6671,-87.9365,1.475,2.6,1111122 
DISL,ioos:station:DISL:MHPA:1,2014-12-05T05:30:00Z,30.6671,-87.9365,1.473,2.86,1111122 
DISL,ioos:station:DISL:MHPA:1,2014-12-05T06:00:00Z,30.6671,-87.9365,1.446,2.84,1111122 
DISL,ioos:station:DISL:MHPA:1,2014-12-05T06:30:00Z,30.6671,-87.9365,1.411,2.86,1111122 
DISL,ioos:station:DISL:MHPA:1,2014-12-05T07:00:00Z,30.6671,-87.9365,1.375,2.87,1111122 
DISL,ioos:station:DISL:MHPA:1,2014-12-05T07:30:00Z,30.6671,-87.9365,1.332,2.86,1111122 
DISL,ioos:station:DISL:MHPA:1,2014-12-05T08:00:00Z,30.6671,-87.9365,1.283,2.97,1111122 
DISL,ioos:station:DISL:MHPA:1,2014-12-05T08:30:00Z,30.6671,-87.9365,1.234,3.11,1111122 
DISL,ioos:station:DISL:MHPA:1,2014-12-05T09:00:00Z,30.6671,-87.9365,1.193,3.16,1111122 
DISL,ioos:station:DISL:MHPA:1,2014-12-05T09:30:00Z,30.6671,-87.9365,1.151,3.35,1111122 
DISL,ioos:station:DISL:MHPA:1,2014-12-05T10:00:00Z,30.6671,-87.9365,1.11,3.46,1111122 
DISL,ioos:station:DISL:MHPA:1,2014-12-05T10:30:00Z,30.6671,-87.9365,1.069,3.42,1111122 
DISL,ioos:station:DISL:MHPA:1,2014-12-05T11:00:00Z,30.6671,-87.9365,1.034,3.41,1111122 
DISL,ioos:station:DISL:MHPA:1,2014-12-05T11:30:00Z,30.6671,-87.9365,1.009,3.56,1111122 
DISL,ioos:station:DISL:MHPA:1,2014-12-05T12:00:00Z,30.6671,-87.9365,0.976,3.6,1111122 
DISL,ioos:station:DISL:MHPA:1,2014-12-05T12:30:00Z,30.6671,-87.9365,0.953,3.65,1111122 
DISL,ioos:station:DISL:MHPA:1,2014-12-05T13:00:00Z,30.6671,-87.9365,0.933,3.58,1111122 
DISL,ioos:station:DISL:MHPA:1,2014-12-05T13:30:00Z,30.6671,-87.9365,0.916,3.42,1111122 
DISL,ioos:station:DISL:MHPA:1,2014-12-05T14:00:00Z,30.6671,-87.9365,0.912,3.44,1111122 
DISL,ioos:station:DISL:MHPA:1,2014-12-05T14:30:00Z,30.6671,-87.9365,0.909,3.05,1111122 
DISL,ioos:station:DISL:MHPA:1,2014-12-05T15:00:00Z,30.6671,-87.9365,0.898,3.13,1111122 
DISL,ioos:station:DISL:MHPA:1,2014-12-05T15:30:00Z,30.6671,-87.9365,0.904,3.15,1111122 
DISL,ioos:station:DISL:MHPA:1,2014-12-05T16:00:00Z,30.6671,-87.9365,0.926,3.15,1111122 
DISL,ioos:station:DISL:MHPA:1,2014-12-05T16:30:00Z,30.6671,-87.9365,0.933,3.15,1111122 
DISL,ioos:station:DISL:MHPA:1,2014-12-05T17:00:00Z,30.6671,-87.9365,0.954,3.1,1111122 
DISL,ioos:station:DISL:MHPA:1,2014-12-05T17:30:00Z,30.6671,-87.9365,1.011,3.14,1111122 
DISL,ioos:station:DISL:MHPA:1,2014-12-05T18:00:00Z,30.6671,-87.9365,1.055,3.19,1111122 
DISL,ioos:station:DISL:MHPA:1,2014-12-05T18:30:00Z,30.6671,-87.9365,1.098,3.18,1111122 
DISL,ioos:station:DISL:MHPA:1,2014-12-05T19:00:00Z,30.6671,-87.9365,1.167,3.07,1111122 
DISL,ioos:station:DISL:MHPA:1,2014-12-05T19:30:00Z,30.6671,-87.9365,1.212,2.88,1111122 
DISL,ioos:station:DISL:MHPA:1,2014-12-05T20:00:00Z,30.6671,-87.9365,1.244,2.79,1111122 
DISL,ioos:station:DISL:MHPA:1,2014-12-05T20:30:00Z,30.6671,-87.9365,1.275,3.03,1111122 
DISL,ioos:station:DISL:MHPA:1,2014-12-05T21:00:00Z,30.6671,-87.9365,1.307,3.4,1111122 
DISL,ioos:station:DISL:MHPA:1,2014-12-05T21:30:00Z,30.6671,-87.9365,1.315,3.28,1111122 
DISL,ioos:station:DISL:MHPA:1,2014-12-05T22:00:00Z,30.6671,-87.9365,1.331,3.23,1111122 
DISL,ioos:station:DISL:MHPA:1,2014-12-05T22:30:00Z,30.6671,-87.9365,1.354,3.21,1111122 
DISL,ioos:station:DISL:MHPA:1,2014-12-05T23:00:00Z,30.6671,-87.9365,1.386,3.09,1111122 
DISL,ioos:station:DISL:MHPA:1,2014-12-05T23:30:00Z,30.6671,-87.9365,1.41,3.08,1111122 
DISL,ioos:station:DISL:MHPA:1,2014-12-06T00:00:00Z,30.6671,-87.9365,1.44,2.91,1111122 
DISL,ioos:station:DISL:MHPA:1,2014-12-06T00:30:00Z,30.6671,-87.9365,1.472,2.96,1111122 
DISL,ioos:station:DISL:MHPA:1,2014-12-06T01:00:00Z,30.6671,-87.9365,1.5,2.96,1111122 
DISL,ioos:station:DISL:MHPA:1,2014-12-06T01:30:00Z,30.6671,-87.9365,1.522,2.95,1111122 
DISL,ioos:station:DISL:MHPA:1,2014-12-06T02:00:00Z,30.6671,-87.9365,1.543,2.93,1111122 
DISL,ioos:station:DISL:MHPA:1,2014-12-06T02:30:00Z,30.6671,-87.9365,1.56,2.92,1111122 
DISL,ioos:station:DISL:MHPA:1,2014-12-06T03:00:00Z,30.6671,-87.9365,1.587,3.19,1111122 
DISL,ioos:station:DISL:MHPA:1,2014-12-06T03:30:00Z,30.6671,-87.9365,1.597,3.22,1111122 
DISL,ioos:station:DISL:MHPA:1,2014-12-06T04:00:00Z,30.6671,-87.9365,1.602,3.2,1111122 
DISL,ioos:station:DISL:MHPA:1,2014-12-06T04:30:00Z,30.6671,-87.9365,1.606,3.15,1111122 
DISL,ioos:station:DISL:MHPA:1,2014-12-06T05:00:00Z,30.6671,-87.9365,1.592,3.14,1111122 
DISL,ioos:station:DISL:MHPA:1,2014-12-06T05:30:00Z,30.6671,-87.9365,1.581,3.14,1111122 
DISL,ioos:station:DISL:MHPA:1,2014-12-06T06:00:00Z,30.6671,-87.9365,1.545,3.12,1111122 
DISL,ioos:station:DISL:MHPA:1,2014-12-06T06:30:00Z,30.6671,-87.9365,1.511,3.1,1111122 
DISL,ioos:station:DISL:MHPA:1,2014-12-06T07:00:00Z,30.6671,-87.9365,1.469,3.08,1111122 
DISL,ioos:station:DISL:MHPA:1,2014-12-06T07:30:00Z,30.6671,-87.9365,1.419,3.05,1111122 
DISL,ioos:station:DISL:MHPA:1,2014-12-06T08:00:00Z,30.6671,-87.9365,1.368,3.14,1111122 
DISL,ioos:station:DISL:MHPA:1,2014-12-06T08:30:00Z,30.6671,-87.9365,1.32,3.38,1111122 
DISL,ioos:station:DISL:MHPA:1,2014-12-06T09:00:00Z,30.6671,-87.9365,1.275,3.43,1111122 
DISL,ioos:station:DISL:MHPA:1,2014-12-06T09:30:00Z,30.6671,-87.9365,1.226,3.56,1111122 
DISL,ioos:station:DISL:MHPA:1,2014-12-06T10:00:00Z,30.6671,-87.9365,1.178,3.81,1111122 
DISL,ioos:station:DISL:MHPA:1,2014-12-06T10:30:00Z,30.6671,-87.9365,1.138,3.83,1111122 
DISL,ioos:station:DISL:MHPA:1,2014-12-06T11:00:00Z,30.6671,-87.9365,1.109,4.12,1111122 
DISL,ioos:station:DISL:MHPA:1,2014-12-06T11:30:00Z,30.6671,-87.9365,1.063,3.94,1111122 
DISL,ioos:station:DISL:MHPA:1,2014-12-06T12:00:00Z,30.6671,-87.9365,1.023,3.98,1111122 
DISL,ioos:station:DISL:MHPA:1,2014-12-06T12:30:00Z,30.6671,-87.9365,1.0,4.03,1111122 
DISL,ioos:station:DISL:MHPA:1,2014-12-06T13:00:00Z,30.6671,-87.9365,0.972,4.07,1111122 
DISL,ioos:station:DISL:MHPA:1,2014-12-06T13:30:00Z,30.6671,-87.9365,0.945,3.96,1111122 
DISL,ioos:station:DISL:MHPA:1,2014-12-06T14:00:00Z,30.6671,-87.9365,0.925,3.91,1111122 
DISL,ioos:station:DISL:MHPA:1,2014-12-06T14:30:00Z,30.6671,-87.9365,0.907,3.93,1111122 
DISL,ioos:station:DISL:MHPA:1,2014-12-06T15:00:00Z,30.6671,-87.9365,0.887,4.02,1111122 
DISL,ioos:station:DISL:MHPA:1,2014-12-06T15:30:00Z,30.6671,-87.9365,0.874,4.04,1111122 